SCP
0 0 0 0 0 0 0 0 0 0 0 0 0 0 0 0 0 0 0 0 0 0 0 0 0 0 0 0 0 0 0 0 0 0 0 0 0 0 0 0 0 0 0
0 0 0 0 0 0 0 0 0 0 0 0 0 0 0 0 0 0 0 0 0 0 0 0 0 0 0 0 0 0 0 0 0 0 0 0 0 0 0 0 0 0 0
0 0 0 0 0 0 0 0 0 0 0 0 0 0 0 0 0 0 0 0 0 0 0 0 0 0 0 0 0 0 0 0 0 0 0 0 0 0 0 0 0 0 0
0 0 0 0 0 0 0 0 0 0 0 0 0 0 0 0 0 0 0 0 0 0 0 0 0 0 0 0 0 0 0 0 0 0 0 0 0 0 0 0 0 0 0
0 -0 -0 0 0 0 0 0 0 0 0 0 0 0 0 0 0 0 0 0 0 0 0 0 0 0 0 0 0 0 0 0 0 0 0 0 0 0 0 0 0 0 0
-0 -0 -0 -0 0 0 0 0 0 0 0 0 0 0 0 0 0 0 0 0 0 0 0 0 0 0 0 0 0 0 0 0 0 0 0 0 0 0 0 0 0 0 0
-0 -0 -0 -0 0 0 0 0 0 0 0 0 0 0 0 0 0 0 0 0 0 0 0 0 0 0 0 0 0 0 0 0 0 0 0 0 0 0 0 0 0 0 0
0 0 0 -0 -0 0 0 0 0 0 0 0 0 0 0 0 0 0 0 0 0 0 0 0 0 0 0 0 0 0 0 0 0 0 0 0 0 0 0 0 0 0 0
0 0 0 0 0 0 0 0 0 0 0 0 0 0 0 0 0 0 0 0 0 0 0 0 0 0 0 0 0 0 0 0 0 0 0 0 0 0 0 0 0 0 0
0 0 0 0 0 0 0 0 0 0 0 0 0 0 0 0 0 0 0 0 0 0 0 0 0 0 0 0 0 0 0 0 0 0 0 0 0 0 0 0 0 0 0
0 0 0 0 0 0 0 0 0 0 0 0 0 0 0 0 0 0 0 0 0 0 0 0 0 0 0 0 0 0 0 0 0 -0 -0 -0 0 0 0 0 0 0 0
0 0 0 0 0 0 0 0 0 0 0 0 0 0 0 0 0 0 0 0 0 0 0 0 0 0 0 0 0 0 0 0 0 -0 -0 -0 -0 -0 0 0 0 0 0
0 0 0 0 0 -0 0 0 0 0 0 0 0 0 0 0 0 0 0 0 0 0 0 0 0 0 0 0 0 0 0 0 -0 -0 -0 -0 -0 -0 -0 -0 -0 -0 -0
0 0 0 0 0 -0 -0 0 0 0 0 0 0 0 0 0 0 0 0 0 0 0 0 0 0 0 0 0 0 0 0 -0 -0 -0 -0 -0 -0 -0 -0 -0 -0 -0 -0
0 0 0 0 0 0 0 0 0 0 0 0 0 0 0 0 0 0 0 0 0 0 0 0 0 0 0 -0 -0 -0 -0 -0 -0 -0 -0 -0 -0 -0 -0 -0 -0 -0 -0
0 0 -0 -0 -0 -0 0 0 0 0 0 0 0 0 0 0 0 0 0 0 0 0 0 0 0 0 0 0 0 0 -0 -0 -0 -0 -0 -0 -0 -0 -0 -0 -0 -0 -0
0 0 -0 -0 -0 -0 0 0 0 0 0 0 0 0 0 0 0 0 0 0 0 0 0 0 0 0 0 0 0 0 -0 -0 -0 -0 -0 -0 0 -0 -0 -0 -0 -0 -0
0 -0 -0 -0 -0 -0 0 0 0 0 0 0 0 0 0 0 0 0 0 0 0 0 0 0 0 0 0 0 0 0 0 0 0 0 -0 -0 -0 -0 -0 -0 -0 -0 -0
0 -0 0 0 0 0 0 0 0 0 0 0 0 0 0 0 0 0 0 0 0 0 0 0 0 0 0 0 0 0 0 0 0 0 0 0 0 -0 -0 -0 -0 -0 -0
0 0 0 0 0 0 0 0 0 0 0 0 0 0 0 0 0 0 0 0 0 0 0 0 0 0 0 0 0 0 0 0 0 0 0 0 0 0 -0 -0 -0 0 -0
0 0 0 0 0 0 0 0 0 0 0 0 0 0 0 0 0 0 0 0 0 0 0 0 0 0 0 0 0 0 0 0 0 0 0 0 0 0 0 -0 -0 0 0
0 0 0 0 0 0 0 0 0 0 0 0 0 0 0 0 0 0 0 0 0 0 0 0 0 0 0 0 0 0 0 0 0 0 0 0 0 0 0 0 0 0 0
0 0 0 0 0 0 0 0 0 0 0 0 0 0 0 0 0 0 0 0 0 0 0 0 0 0 0 0 0 0 0 0 0 0 0 0 0 0 0 0 0 0 0
0 0 0 0 0 0 0 0 0 0 0 0 0 0 0 0 0 0 0 0 0 0 0 0 0 0 0 0 0 0 0 0 0 0 0 0 0 0 0 0 0 0 0
0 0 0 0 0 0 0 0 0 0 0 0 0 0 0 0 0 0 0 0 0 0 0 0 0 0 0 0 0 0 0 0 0 0 0 0 0 0 0 0 0 0 0
0 0 0 0 0 0 0 0 0 0 0 0 0 0 0 0 0 0 0 0 0 0 0 0 0 0 0 0 0 0 0 0 0 0 0 0 0 0 0 0 0 0 0
Wind_Speed
1 2 2 1 1 1 1 0 0 1 1 1 1 1 2 2 2 2 2 2 2 3 3 3 3 3 2 2 2 2 2 3 5 6 4 5 6 7 8 7 7 7 8
1 2 1 1 1 1 1 0 1 0 1 1 1 1 1 2 2 1 2 2 2 3 3 3 3 3 3 3 2 3 3 3 4 7 6 6 6 7 7 8 8 8 7
1 1 1 1 1 1 0 1 1 1 1 1 1 1 1 1 1 1 1 2 2 2 3 3 3 3 3 3 3 3 3 4 3 5 7 6 5 5 7 8 8 6 8
1 1 1 0 0 0 0 0 0 1 1 1 1 1 1 2 2 2 2 2 3 3 3 3 3 3 3 4 4 4 4 4 4 4 6 6 6 6 6 7 8 6 7
2 1 1 0 0 1 1 1 1 1 1 1 1 2 2 1 2 2 2 2 2 2 3 3 4 4 5 5 4 4 4 4 4 5 6 6 6 7 7 7 8 9 7
2 1 1 1 1 1 1 1 1 1 1 1 1 1 2 2 3 3 2 1 2 2 3 4 4 4 5 7 8 8 6 5 5 5 5 7 8 7 7 7 8 9 8
2 1 1 1 1 1 1 1 0 0 1 1 1 1 2 2 3 3 2 1 2 2 3 3 3 4 4 4 6 8 7 8 8 6 6 7 8 7 8 8 8 8 9
2 1 1 1 1 0 1 1 0 0 0 1 1 1 1 2 3 3 3 2 1 2 2 3 3 4 4 5 5 5 5 5 7 5 5 6 6 7 6 7 8 8 8
2 2 2 2 1 1 1 1 1 0 0 1 1 1 2 3 3 3 2 1 1 2 3 3 3 4 7 8 5 5 6 6 7 9 9 9 11 12 10 6 6 6 8
3 2 2 2 2 2 2 1 1 1 1 0 1 1 2 3 3 3 3 1 2 2 2 3 4 5 8 8 4 4 6 6 6 7 8 8 7 8 10 6 5 5 7
2 2 2 2 2 2 2 1 1 1 0 0 1 2 2 2 3 4 3 2 2 2 2 3 3 7 8 7 5 3 6 6 5 5 5 5 5 5 5 5 4 5 6
3 3 2 2 2 1 2 1 1 1 1 1 1 2 2 2 3 4 4 4 3 2 3 3 3 7 7 7 5 6 8 6 3 4 4 5 5 6 6 6 6 6 6
3 3 2 2 1 1 2 2 1 1 1 1 1 2 2 2 3 5 5 5 5 3 3 5 6 7 6 5 6 7 5 3 3 4 5 5 5 6 6 6 6 6 7
4 3 3 2 2 1 1 2 2 2 2 2 2 2 3 2 2 2 2 3 3 3 3 4 6 6 5 5 5 5 3 3 3 4 5 5 5 5 5 5 6 7 7
4 3 3 3 3 2 2 2 3 3 4 4 3 3 2 3 4 4 2 2 2 2 2 1 2 2 3 3 3 3 3 3 3 4 5 5 6 6 6 5 5 5 6
4 4 3 3 3 2 2 2 3 4 4 4 4 3 3 4 5 5 4 4 4 2 1 1 2 2 3 3 4 4 3 3 4 4 5 5 6 6 7 6 5 5 7
6 5 4 4 3 3 3 3 2 2 3 4 5 5 5 5 5 5 5 4 3 1 0 1 2 3 3 3 4 4 4 4 4 4 5 5 5 6 6 6 6 6 7
5 5 4 4 4 4 4 3 3 3 2 3 4 6 6 6 6 5 4 2 2 2 2 3 3 4 4 4 4 4 5 4 4 4 5 5 5 5 6 6 6 7 8
6 4 4 3 3 3 3 3 3 3 3 3 3 4 5 5 5 4 2 1 3 3 3 4 4 4 4 4 4 4 4 5 5 5 5 5 5 5 5 6 6 8 7
5 6 5 4 3 3 3 4 4 4 4 4 4 4 2 1 2 3 2 3 4 4 4 4 4 4 4 4 4 4 4 5 5 5 5 5 5 5 6 7 6 7 7
4 5 6 4 4 4 4 5 4 4 4 4 5 4 4 3 4 4 4 4 4 5 5 5 5 5 4 4 4 5 6 5 5 5 5 5 5 5 5 6 6 6 7
4 4 4 5 4 4 5 4 4 5 5 5 4 4 6 4 4 4 5 5 5 5 5 5 5 5 5 5 5 5 6 6 5 5 5 5 5 5 5 5 6 6 6
4 5 4 4 4 5 5 4 4 5 5 5 4 4 3 4 5 5 5 5 4 4 4 4 5 5 5 4 5 5 6 7 6 5 6 6 5 5 5 6 7 7 7
5 5 5 5 5 5 5 5 5 5 5 5 5 5 5 5 5 5 5 4 4 4 4 4 5 7 8 6 5 5 6 7 6 6 7 6 6 6 5 6 7 7 7
5 5 5 5 5 5 5 5 5 5 5 5 5 5 5 5 5 5 5 4 5 5 6 5 5 6 8 9 8 7 9 10 8 6 5 5 6 6 6 6 6 7 7
5 5 5 5 5 5 5 5 6 6 6 5 5 5 5 5 5 5 5 4 5 5 6 6 7 8 8 8 9 10 10 10 9 8 6 5 6 6 6 6 7 6 7
Wind_Direction
119 113 111 100 96 94 97 87 10 12 4 355 355 12 8 2 5 16 10 3 5 357 350 354 349 347 342 333 324 314 304 291 285 297 300 310 312 315 319 320 317 317 315
123 112 110 107 98 92 82 358 18 3 348 357 18 19 357 352 358 2 350 346 343 342 338 340 336 337 330 321 317 307 300 297 290 298 307 311 310 314 317 319 323 321 316
128 128 119 119 114 110 28 1 12 14 12 16 23 355 331 332 337 333 329 328 329 327 325 321 318 325 322 322 317 308 304 309 303 297 303 307 308 317 319 316 315 313 316
135 134 146 184 170 171 81 27 7 31 30 7 352 330 322 324 323 320 331 325 318 324 325 325 319 318 316 317 315 311 310 313 312 305 303 310 312 313 317 319 319 320 317
139 154 205 208 121 89 72 52 40 39 27 360 357 343 331 323 318 321 315 308 312 330 336 332 333 334 332 328 322 317 313 312 316 313 310 313 315 322 324 320 314 316 310
158 188 177 91 80 83 82 77 62 38 23 12 359 341 333 329 329 318 325 333 338 334 330 333 331 331 336 335 331 328 326 321 319 316 310 310 312 315 316 314 313 316 317
166 170 133 122 113 113 102 85 63 356 358 332 320 314 309 318 330 339 345 353 346 333 328 327 329 332 327 329 332 335 337 330 318 310 307 308 310 315 313 310 310 309 302
165 170 165 155 159 117 105 119 65 21 333 317 318 310 320 332 342 337 2 6 340 325 320 322 324 324 323 329 335 338 334 332 322 318 309 308 310 315 314 310 309 306 298
185 201 199 182 181 171 181 213 214 163 293 304 331 324 312 314 325 341 353 337 327 319 320 330 323 316 325 336 345 338 333 332 337 331 325 324 327 332 335 332 327 322 312
207 210 200 185 188 194 204 209 193 176 233 285 320 315 297 297 317 332 332 323 316 315 321 329 330 330 333 337 343 336 324 327 337 336 334 335 335 335 341 339 321 314 311
196 182 181 190 199 204 201 197 181 177 158 311 298 307 302 304 318 320 317 312 302 309 315 321 326 330 331 334 339 330 320 332 334 329 327 329 332 334 333 330 319 303 298
167 170 186 194 198 187 180 191 178 174 189 245 276 300 304 307 312 313 310 301 310 305 301 311 319 325 328 332 333 331 334 339 338 332 328 327 329 326 323 318 311 300 284
164 178 188 182 186 181 184 191 190 193 213 241 253 275 292 302 303 302 301 303 306 300 306 317 320 322 325 331 336 339 344 344 335 326 318 315 313 309 311 313 311 305 296
177 185 182 179 186 190 199 198 199 207 218 228 238 256 276 288 288 291 289 294 298 293 303 313 317 327 335 342 343 341 341 330 314 304 304 304 309 311 314 317 316 321 316
185 188 188 189 189 193 206 217 218 224 218 221 229 231 244 268 277 285 287 275 265 268 304 337 347 345 341 338 337 332 329 328 319 313 310 311 313 313 313 315 310 314 310
190 195 196 193 191 194 201 240 246 238 246 245 243 242 257 271 299 296 292 290 289 298 23 331 313 313 307 309 311 312 310 306 305 305 303 304 308 311 313 315 313 310 306
199 197 194 192 193 197 203 210 239 264 260 259 258 264 267 284 295 299 301 307 308 322 215 272 277 282 284 286 287 287 290 294 296 295 295 298 301 305 308 311 315 314 309
201 201 197 199 198 200 206 214 218 227 254 273 280 279 280 285 292 297 304 315 304 291 246 253 262 267 270 274 277 280 286 294 291 288 288 291 293 298 303 306 308 307 307
198 204 202 202 200 201 203 207 216 225 236 254 280 290 290 292 297 298 308 238 253 262 259 257 258 261 266 268 271 274 276 279 281 283 283 285 288 292 295 298 301 304 305
205 206 196 196 198 202 204 209 216 223 231 240 248 256 270 265 268 277 256 243 247 254 256 258 258 257 260 263 267 270 274 275 277 275 278 283 285 285 288 294 297 301 301
200 201 195 197 205 208 210 216 219 220 228 237 244 243 231 229 244 251 249 246 246 251 254 257 260 260 258 260 263 266 268 272 272 274 278 281 283 285 286 287 291 294 298
195 198 199 206 209 212 216 220 220 224 229 237 249 255 248 240 245 251 252 251 248 247 247 249 256 256 253 253 257 263 267 271 273 276 280 283 284 285 287 289 293 297 299
195 199 204 209 210 213 216 219 221 226 232 236 241 244 241 240 244 248 254 257 257 257 253 250 257 264 262 256 251 250 256 261 263 264 271 276 279 281 283 286 289 295 297
197 202 207 210 210 214 218 222 224 227 231 236 238 239 241 243 247 252 255 259 261 261 258 254 255 261 265 267 262 255 256 261 261 256 254 261 269 275 277 282 285 289 293
197 204 208 211 213 217 221 225 227 228 231 234 236 239 242 244 250 254 256 257 260 262 262 259 259 262 265 266 267 268 268 270 267 259 254 255 261 264 269 275 281 289 292
200 205 211 212 214 218 222 227 229 229 231 234 235 236 239 244 250 254 256 257 263 266 266 263 261 264 269 267 268 273 273 273 268 258 252 251 256 262 266 272 277 282 287